Satellite-Ground Cal/Val Site Overpasses Predictions

Prediction of Satellite NPP Overpassing Cal/Val Site: Antarctic Dome C

Ground Cal/Val Site Location: Latitude: -75.10, Longitude: 123.35; Satellite-Ground Site NADIR distance within 100 km.

Table of predicted overpasses for the next 14.0 days since TLE Epoch: 11/29/2012
Interval Starting Time Ending Time Minimum Distance Time Minimum Distance (km)
1 12/01/2012 14:52:54 12/01/2012 14:53:23 12/01/2012 14:53:09 21.41
2 12/02/2012 14:34:12 12/02/2012 14:34:26 12/02/2012 14:34:19 85.64
3 12/03/2012 07:35:44 12/03/2012 07:36:12 12/03/2012 07:35:58 35.18
4 12/04/2012 07:16:59 12/04/2012 07:17:18 12/04/2012 07:17:09 74.88
5 12/06/2012 14:59:13 12/06/2012 14:59:36 12/06/2012 14:59:25 58.41
6 12/07/2012 14:40:23 12/07/2012 14:40:48 12/07/2012 14:40:35 50.85
7 12/08/2012 07:42:04 12/08/2012 07:42:25 12/08/2012 07:42:14 70.43
8 12/09/2012 07:23:11 12/09/2012 07:23:38 12/09/2012 07:23:25 37.65
9 12/11/2012 15:05:38 12/11/2012 15:05:45 12/11/2012 15:05:41 96.05


NCC Satellite Cal/Val Overpasses Prediction Service
